[Iaude] MPEC B167: 2024 BS3 [a=1.75,e=0.55,i=25.7,H=24.3]

mpec at marsden.cfa.harvard.edu mpec at marsden.cfa.harvard.edu
Tue Jan 30 22:14:23 EST 2024


M.P.E.C. 2024-B167                             Issued 2024 January 31, 03:12 UT

     The Minor Planet Electronic Circulars contain information on unusual
         minor planets, routine data on comets and natural satellites,
         and occasional editorial announcements.  They are published
    on behalf of Division F of the International Astronomical Union by the
          Minor Planet Center, Smithsonian Astrophysical Observatory,
                          Cambridge, MA 02138, U.S.A.
			  
             Prepared using the Tamkin Foundation Computer Network

                              MPC at CFA.HARVARD.EDU
            URL https://www.minorplanetcenter.net/    ISSN 1523-6714

                                    2024 BS3                                    


Observations:
     K24B03S* C2024 01 19.32934507 57 20.844+32 36 47.63         22.41GVEB167V00
     K24B03S  C2024 01 19.33546007 57 18.745+32 36 24.30         21.99GVEB167V00
     K24B03S  C2024 01 19.34157507 57 16.646+32 36 00.54         21.80GVEB167V00
     K24B03S  C2024 01 19.34768407 57 14.544+32 35 37.07         21.80GVEB167V00
     K24B03S KC2024 01 19.43797 07 56 43.53 +32 29 44.5          22.4 RVEB167291
     K24B03S KC2024 01 19.44457 07 56 41.35 +32 29 18.7          22.3 RVEB167291
     K24B03S KC2024 01 19.45120 07 56 39.08 +32 28 52.2          21.5 RVEB167291
     K24B03S mC2024 01 20.42692307 51 08.896+31 22 46.78         22.53GVEB167V00
     K24B03S mC2024 01 20.42883907 51 08.201+31 22 38.82         22.49GVEB167V00
     K24B03S mC2024 01 20.43075907 51 07.528+31 22 30.32         21.32GVEB167V00
     K24B03S mC2024 01 20.43267607 51 06.858+31 22 21.90         21.18GVEB167V00
     K24B03S KC2024 01 29.21134 06 48 59.96 +15 23 00.4                VEB167291
     K24B03S KC2024 01 29.22058 06 48 55.21 +15 21 35.1          21.6 RVEB167291

Observer details:
291 LPL/Spacewatch II.  Observers C. Lejoly, T. H. Bressi.  1.8-m f/2.7
    reflector + CCD.
V00 Kitt Peak-Bok.  Observers R. A. Mastaler, H. Groeller.  Measurers M. J.
    Brucker, C. E. Woodward, D. Fay, J. B. Fazekas, D. C. Fuls, A. R. Gibbs,
    H. Groeller, J. K. Hogan, R. A. Kowalski, S. M. Larson, C. Lejoly, G. J.
    Leonard, R. A. Mastaler, R. S. McMillan, D. Rankin, R. L. Seaman, A.
    Serrano, F. C. Shelly, K. W. Wierzchos.  2.25-m reflector + 4x4K mosaic
    CCD.

Orbital elements:
2024 BS3                                                 Earth MOID = 0.1090 AU
Epoch 2023 Sept. 13.0 TT = JDT 2460200.5                Veres                   
M 275.12238              (2000.0)            P               Q                  
n   0.42588461     Peri.  264.76364     -0.80620342     +0.46509762             
a   1.7496107      Node   302.46161     -0.19961496     -0.79566497             
e   0.5510402      Incl.   25.68323     -0.55694696     -0.38807404             
P   2.31           H   24.38          G   0.15           U   8                  
Residuals in seconds of arc
240119 V00  0.0   0.0     240119 291  0.1-  0.0     240120 V00  0.3+  0.1-
240119 V00  0.0   0.1+    240119 291  0.3-  0.3-    240129 291  0.3-  0.1+
240119 V00  0.0   0.1-    240120 V00  0.1-  0.2-    240129 291  0.3+  0.1-
240119 V00  0.0   0.0     240120 V00  0.2-  0.2+
240119 291  1.0-  0.3-    240120 V00  0.0   0.0

Ephemeris:
2024 BS3                 a,e,i = 1.75, 0.55, 26                  q = 0.7855
Date    TT    R. A. (2000) Decl.     Delta      r    Elong.  Phase     V
2024 01 01    08 56 41.6 +41 38 18   0.4434  1.3747   146.4    23.3    24.4
...
2024 01 16    08 13 59.0 +35 37 47   0.2712  1.2471   164.4    12.2    22.8
...
2024 01 24    07 28 36.6 +26 20 03   0.1991  1.1784   166.0    11.7    21.9
...
2024 01 30    06 42 22.1 +13 19 05   0.1612  1.1271   149.8    26.1    21.9
2024 01 31    06 33 45.4 +10 32 26   0.1568  1.1187   146.1    29.4    21.9
2024 02 01    06 24 55.9 +07 36 23   0.1531  1.1102   142.2    33.0    21.9
...
2024 02 07    05 28 57.8 -11 46 09   0.1459  1.0600   116.8    56.1    22.4
...
2024 02 15    04 13 59.3 -33 23 33   0.1728  0.9954    87.6    82.4    23.4
...
2024 03 01    02 15 25.1 -50 10 10   0.2753  0.8876    60.4   104.0    25.1

M. P. C. Staff               (C) Copyright 2024 MPC           M.P.E.C. 2024-B167





More information about the Iaude mailing list